CW4427 Weather Reports


Display with metric or nautical units.
time (UTC)temp
F
wind
direction
speed
MPH
gust
MPH
rain 1hr
in
rain 24hr
in
rain mn
in
humidity
%
barometer
mb
20240301021009 48 74 1.0 3.0 0.00 0.00 0.00 36 1025.2
20240301015009 48 124 5.0 9.0 0.00 0.00 0.00 36 1024.9
20240301013010 48 54 1.0 8.0 0.00 0.00 0.00 34 1025.1
20240301012010 48 82 3.0 8.0 0.00 0.00 0.00 34 1025.2
20240301011010 48 173 1.0 9.0 0.00 0.00 0.00 34 1025.2
20240301010009 49 26 3.0 6.0 0.00 0.00 0.00 33 1026.0
20240301005009 49 37 1.0 6.0 0.00 0.00 0.00 33 1026.2
20240301003009 49 38 0.0 6.0 0.00 0.00 0.00 33 1026.3
20240301002010 49 94 2.0 6.0 0.00 0.00 0.00 31 1026.7
20240301001010 49 36 1.0 4.0 0.00 0.00 0.00 31 1026.9
20240301000009 50 85 1.0 5.0 0.00 0.00 0.00 31 1026.9
20240229235009 50 36 2.0 3.0 0.00 0.00 0.00 31 1026.9
20240229234009 50 78 3.0 4.0 0.00 0.00 0.00 31 1026.9
20240229233009 50 92 2.0 4.0 0.00 0.00 0.00 31 1027.1
20240229231009 51 101 0.0 4.0 0.00 0.00 0.00 29 1026.8
20240229230009 51 95 2.0 7.0 0.00 0.00 0.00 28 1027.2
20240229225009 51 94 2.0 4.0 0.00 0.00 0.00 29 1027.5
20240229224009 51 109 4.0 4.0 0.00 0.00 0.00 28 1027.5
20240229223010 51 81 3.0 6.0 0.00 0.00 0.00 27 1027.6
20240229222009 51 97 2.0 5.0 0.00 0.00 0.00 27 1027.7
20240229221009 51 27 3.0 4.0 0.00 0.00 0.00 26 1027.9
20240229220009 51 35 2.0 5.0 0.00 0.00 0.00 27 1028.3
20240229215009 51 74 1.0 7.0 0.00 0.00 0.00 25 1028.0
20240229214009 52 61 2.0 8.0 0.00 0.00 0.00 25 1027.9
20240229213010 52 35 3.0 9.0 0.00 0.00 0.00 26 1027.9
20240229212009 52 64 5.0 11.0 0.00 0.00 0.00 25 1027.9
20240229210009 52 97 1.0 9.0 0.00 0.00 0.00 27 1028.4
20240229205009 52 98 2.0 10.0 0.00 0.00 0.00 27 1028.4
20240229204009 52 105 4.0 10.0 0.00 0.00 0.00 26 1028.3
20240229203009 51 192 1.0 10.0 0.00 0.00 0.00 26 1028.2
20240229202009 52 5 9.0 9.0 0.00 0.00 0.00 27 1028.2
20240229200009 52 49 5.0 13.0 0.00 0.00 0.00 27 1028.7
20240229195009 51 22 4.0 10.0 0.00 0.00 0.00 29 1028.7
20240229194009 51 69 5.0 11.0 0.00 0.00 0.00 29 1029.4
20240229193009 51 129 3.0 11.0 0.00 0.00 0.00 29 1029.5
20240229192009 51 16 11.0 13.0 0.00 0.00 0.00 29 1029.6
20240229191009 50 5 6.0 16.0 0.00 0.00 0.00 29 1029.6
20240229190009 50 16 4.0 10.0 0.00 0.00 0.00 29 1030.0
20240229185009 48 40 2.0 11.0 0.00 0.00 0.00 30 1030.0
20240229184009 48 107 4.0 11.0 0.00 0.00 0.00 31 1030.5
20240229183009 48 117 1.0 10.0 0.00 0.00 0.00 30 1031.1
20240229181009 49 101 4.0 12.0 0.00 0.00 0.00 32 1031.2
20240229175009 48 27 9.0 13.0 0.00 0.00 0.00 33 1031.8
20240229174009 47 86 4.0 15.0 0.00 0.00 0.00 34 1031.7
20240229173010 47 42 4.0 14.0 0.00 0.00 0.00 33 1031.9
20240229172009 47 9 2.0 14.0 0.00 0.00 0.00 34 1032.3
20240229171010 47 35 3.0 11.0 0.00 0.00 0.00 35 1032.6
20240229170010 46 345 5.0 12.0 0.00 0.00 0.00 34 1032.8
20240229164009 45 105 8.0 10.0 0.00 0.00 0.00 35 1033.2
20240229163009 45 101 8.0 11.0 0.00 0.00 0.00 35 1033.5
20240229162009 45 113 4.0 9.0 0.00 0.00 0.00 38 1033.4
20240229161009 44 55 1.0 9.0 0.00 0.00 0.00 39 1033.6
20240229160009 43 24 6.0 13.0 0.00 0.00 0.00 37 1033.7
20240229155009 43 122 8.0 12.0 0.00 0.00 0.00 38 1033.8
20240229153009 42 122 5.0 11.0 0.00 0.00 0.00 42 1033.8
20240229152009 43 95 4.0 12.0 0.00 0.00 0.00 43 1033.8
20240229151009 42 67 2.0 9.0 0.00 0.00 0.00 49 1033.8
20240229150009 40 111 3.0 7.0 0.00 0.00 0.00 53 1033.7
20240229145009 39 46 0.0 8.0 0.00 0.00 0.00 54 1033.6
20240229143009 38 9 1.0 8.0 0.00 0.00 0.00 59 1033.4
20240229142009 37 107 3.0 6.0 0.00 0.00 0.00 60 1033.3
20240229141009 37 116 3.0 7.0 0.00 0.00 0.00 64 1033.0
20240229135009 34 107 4.0 4.0 0.00 0.00 0.00 69 1032.9
20240229134009 33 32 0.0 2.0 0.00 0.00 0.00 70 1033.0
20240229132009 33 59 0.0 0.0 0.00 0.00 0.00 74 1032.5
20240229131009 33 73 0.0 0.0 0.00 0.00 0.00 76 1032.4
20240229130009 33 57 0.0 0.0 0.00 0.00 0.00 75 1032.4
20240229125010 33 57 0.0 0.0 0.00 0.00 0.00 74 1032.4
20240229123009 33 57 0.0 1.0 0.00 0.00 0.00 74 1032.0
20240229122009 32 57 0.0 2.0 0.00 0.00 0.00 74 1031.9
20240229121009 32 84 0.0 3.0 0.00 0.00 0.00 77 1031.7
20240229120009 32 98 2.0 3.0 0.00 0.00 0.00 80 1031.6
20240229115010 32 80 0.0 3.0 0.00 0.00 0.00 81 1031.8
20240229114009 32 31 2.0 3.0 0.00 0.00 0.00 82 1031.9
20240229113009 32 39 0.0 4.0 0.00 0.00 0.00 81 1032.0
20240229112009 32 68 0.0 0.0 0.00 0.00 0.00 82 1031.9
20240229111009 32 68 0.0 0.0 0.00 0.03 0.00 82 1031.8
20240229105009 32 68 0.0 0.0 0.00 0.04 0.00 79 1031.8
20240229104009 33 68 0.0 0.0 0.00 0.04 0.00 78 1031.9
20240229103009 33 68 0.0 0.0 0.00 0.04 0.00 78 1031.7
20240229100009 34 68 0.0 0.0 0.00 0.04 0.00 76 1031.2
20240229095009 34 68 0.0 0.0 0.00 0.04 0.00 76 1031.0
20240229094009 35 68 0.0 0.0 0.00 0.04 0.00 75 1030.6
20240229093009 35 68 0.0 0.0 0.00 0.04 0.00 74 1030.5
20240229092009 35 68 0.0 0.0 0.00 0.04 0.00 73 1030.5
20240229091009 35 68 0.0 0.0 0.00 0.04 0.00 73 1030.4
20240229090009 36 68 0.0 0.0 0.00 0.04 0.00 72 1030.3
20240229085009 36 68 0.0 0.0 0.00 0.04 0.00 72 1030.4
20240229082009 36 68 0.0 0.0 0.00 0.04 0.00 72 1030.2
20240229081009 37 68 0.0 0.0 0.00 0.04 0.00 73 1030.2
20240229080010 37 68 0.0 0.0 0.00 0.04 0.00 73 1030.2
20240229075009 37 68 0.0 0.0 0.00 0.04 0.00 73 1030.2
20240229074010 37 68 0.0 0.0 0.00 0.04 0.00 72 1030.1
20240229073009 37 68 0.0 0.0 0.00 0.04 0.00 71 1030.2
20240229072009 37 68 0.0 0.0 0.00 0.04 0.00 71 1030.1
20240229071009 37 68 0.0 0.0 0.00 0.04 0.00 71 1030.0
20240229070009 37 68 0.0 0.0 0.00 0.04 0.00 71 1029.8
20240229064009 37 68 0.0 0.0 0.00 0.04 0.00 72 1029.3
20240229063009 37 68 0.0 0.0 0.00 0.04 0.00 72 1029.5
20240229061009 37 68 0.0 0.0 0.00 0.04 0.00 71 1029.5
20240229060009 37 68 0.0 0.0 0.00 0.04 0.00 70 1029.6
20240229055009 38 68 0.0 0.0 0.00 0.04 0.04 67 1029.5
20240229053009 38 68 0.0 0.0 0.00 0.04 0.04 67 1029.4
20240229052009 38 68 0.0 0.0 0.00 0.04 0.04 66 1029.2
20240229051009 38 68 0.0 0.0 0.00 0.04 0.04 65 1029.2
20240229050009 38 68 0.0 0.0 0.00 0.04 0.04 65 1029.2
20240229045009 39 68 0.0 0.0 0.00 0.04 0.04 63 1029.2
20240229044009 39 68 0.0 0.0 0.00 0.04 0.04 62 1029.2
20240229043009 39 68 0.0 0.0 0.00 0.04 0.04 62 1029.3
20240229042009 39 68 0.0 0.0 0.00 0.04 0.04 63 1029.3
20240229041009 39 68 0.0 0.0 0.00 0.04 0.04 61 1029.2
20240229040009 39 68 0.0 0.0 0.00 0.04 0.04 61 1029.2
20240229035009 40 68 0.0 0.0 0.00 0.04 0.04 59 1029.2
20240229034009 40 68 0.0 0.0 0.00 0.04 0.04 59 1029.2
20240229033009 40 68 0.0 0.0 0.00 0.04 0.04 57 1029.1
20240229032009 40 68 0.0 0.0 0.00 0.04 0.04 57 1029.2
20240229031010 40 68 0.0 0.0 0.00 0.04 0.04 59 1029.1
20240229030009 40 68 0.0 0.0 0.00 0.04 0.04 60 1029.0
20240229025009 41 68 0.0 0.0 0.00 0.04 0.04 58 1029.2
20240229024009 41 68 0.0 0.0 0.00 0.04 0.04 58 1029.1
20240229023009 41 68 0.0 0.0 0.00 0.04 0.04 55 1029.1
20240229022009 41 68 0.0 0.0 0.00 0.04 0.04 54 1029.0